{"data":{"norad_id":58291,"intl_designator":"2023-174AM","name":"FALCONSAT-10","alt_names":[],"object_type":"PAYLOAD","status":"ACTIVE","operator":null,"country":"US","launch_date":"2023-11-11","launch_site_code":"AFWTR","launch_vehicle":null,"mission":null,"orbit_class":"UNKNOWN","rcs_meters":null,"size_class":null,"mass_kg":null,"dimensions":null,"purposes":[],"wikipedia_slug":null,"has_3d_model":false,"image_url":null,"decayed_at":null,"tle_current":{"epoch":"2026-09-21T18:04:09.598368Z","epoch_age_seconds":131083,"freshness":"FRESH","line1":"1 58291U 23174AM  26264.75288887  .00003095  00000+0  11451-3 0  9996","line2":"2 58291  97.3729 339.8369 0007755 194.9254 165.1758 15.28422092159512","mean_motion":15.28422092,"eccentricity":0.0007755,"inclination_deg":97.3729,"raan_deg":339.8369,"arg_perigee_deg":194.9254,"mean_anomaly_deg":165.1758,"bstar":0.00011451,"rev_number":15951,"period_min":94.21481196439,"perigee_km":475.2098321565,"apogee_km":485.84762269974,"semimajor_km":6858.6657274281,"source":"CELESTRAK","updated_at":"2026-09-22T09:00:26.577485Z"}}}